Starlink 31856

operational
NORAD ID: 59960 Int'l Des: 2024-107 Owner: SPXS Country: US Constellation: starlink
LEOCIRCULAR

Über Starlink 31856

Beschreibung wird geladen...

Live-Position

3D-Globus wird geladen...

Nächste Überflüge

Höhenverlauf

Altitude vs Time

uPlot chart will show altitude changes over time

Zweizeiliger Elementsatz

1 59960U 24107R 25260.97110494 .00001514 00000-0 63219-4 0 9999
2 59960 53.1598 147.7116 0000747 54.4132 305.6939 15.30194407 73353
Epoch: 17. Sept. 2025 • Age: 20 hours

Aktueller Status

Höhe 488.8 km
Geschwindigkeit 7.62 km/s
Subsatellitenpunkt -40.54°S, 174.51°E
Startdatum 5. Juni 2024
Alter 1.2 years
Typ internet

Technische Details

Klassifizierung Payload
Masse 730.00 kg
Trockenmasse 700.00 kg
Gesamtmasse 730.00 kg
Länge 0.30 m
Durchmesser 4.10 m
Spannweite 29.00 m
Form Box + pan
Hersteller SPXS
Bus-Typ Starlink V2M
Phasenstatus In Orbit
Besitzer/Staat SPXS/US

Große Konstellationen

Loading constellations...